Time,TemperatureF,DewpointF,PressureIn,WindDirection,WindDirectionDegrees,WindSpeedMPH,WindSpeedGustMPH,Humidity,HourlyPrecipIn,Conditions,Clouds,dailyrainin,SoftwareType,DateUTC
2013-03-04 00:00:00,28.8,12.5,30.00,NW,323,2.0,2.0,50,0.00,,,0.00,Wunderground v.1.15,2013-03-04 05:00:00,
2013-03-04 00:05:00,28.9,12.1,30.00,NW,325,2.0,2.0,49,0.00,,,0.00,Wunderground v.1.15,2013-03-04 05:05:00,
2013-03-04 00:10:00,28.8,11.6,30.00,NNW,330,2.0,2.0,48,0.00,,,0.00,Wunderground v.1.15,2013-03-04 05:10:00,
2013-03-04 00:15:00,28.8,11.6,30.00,NNW,333,2.0,2.0,48,0.00,,,0.00,Wunderground v.1.15,2013-03-04 05:15:00,
2013-03-04 00:20:00,28.6,11.4,30.00,NW,318,2.0,2.0,48,0.00,,,0.00,Wunderground v.1.15,2013-03-04 05:20:00,
2013-03-04 00:30:00,28.5,10.8,30.00,NNW,329,1.0,1.0,47,0.00,,,0.00,Wunderground v.1.15,2013-03-04 05:30:00,
2013-03-04 00:35:00,28.5,11.3,30.00,NNW,336,1.0,4.0,48,0.00,,,0.00,Wunderground v.1.15,2013-03-04 05:35:00,
2013-03-04 00:40:00,28.3,11.1,30.00,NW,323,1.0,1.0,48,0.00,,,0.00,Wunderground v.1.15,2013-03-04 05:40:00,
2013-03-04 00:50:00,28.0,11.3,30.00,NW,323,0.0,0.0,49,0.00,,,0.00,Wunderground v.1.15,2013-03-04 05:50:00,
2013-03-04 01:00:00,27.8,11.1,30.00,NW,323,0.0,0.0,49,0.00,,,0.00,Wunderground v.1.15,2013-03-04 06:00:00,
2013-03-04 01:05:00,27.6,10.9,30.00,NW,323,0.0,0.0,49,0.00,,,0.00,Wunderground v.1.15,2013-03-04 06:05:00,
2013-03-04 01:10:00,27.5,11.7,30.00,NW,323,0.0,0.0,51,0.00,,,0.00,Wunderground v.1.15,2013-03-04 06:10:00,
2013-03-04 01:15:00,27.3,12.0,30.00,NW,323,0.0,0.0,52,0.00,,,0.00,Wunderground v.1.15,2013-03-04 06:15:00,
2013-03-04 01:20:00,27.2,11.4,30.00,NW,323,0.0,0.0,51,0.00,,,0.00,Wunderground v.1.15,2013-03-04 06:20:00,
2013-03-04 01:25:00,27.0,12.5,30.00,NW,323,0.0,0.0,54,0.00,,,0.00,Wunderground v.1.15,2013-03-04 06:25:00,
2013-03-04 01:30:00,26.7,11.4,30.00,NW,323,0.0,0.0,52,0.00,,,0.00,Wunderground v.1.15,2013-03-04 06:30:00,
2013-03-04 01:35:00,26.6,11.3,30.00,NW,323,0.0,0.0,52,0.00,,,0.00,Wunderground v.1.15,2013-03-04 06:35:00,
2013-03-04 01:40:00,26.6,11.3,30.00,NW,323,0.0,0.0,52,0.00,,,0.00,Wunderground v.1.15,2013-03-04 06:40:00,
2013-03-04 01:45:00,26.6,11.7,30.00,NW,323,0.0,0.0,53,0.00,,,0.00,Wunderground v.1.15,2013-03-04 06:45:00,
2013-03-04 01:50:00,26.7,11.4,30.00,NW,323,0.0,0.0,52,0.00,,,0.00,Wunderground v.1.15,2013-03-04 06:50:00,
2013-03-04 01:55:00,26.9,11.6,30.01,NW,323,0.0,0.0,52,0.00,,,0.00,Wunderground v.1.15,2013-03-04 06:55:00,
2013-03-04 02:00:00,26.9,12.0,30.01,NW,323,0.0,0.0,53,0.00,,,0.00,Wunderground v.1.15,2013-03-04 07:00:00,
2013-03-04 02:05:00,26.7,11.8,30.01,NW,323,0.0,0.0,53,0.00,,,0.00,Wunderground v.1.15,2013-03-04 07:05:00,
2013-03-04 02:10:00,26.6,12.2,30.01,NW,323,0.0,0.0,54,0.00,,,0.00,Wunderground v.1.15,2013-03-04 07:10:00,
2013-03-04 02:15:00,26.6,11.7,30.01,NW,323,0.0,0.0,53,0.00,,,0.00,Wunderground v.1.15,2013-03-04 07:15:00,
2013-03-04 02:20:00,26.6,12.2,30.01,NW,323,0.0,0.0,54,0.00,,,0.00,Wunderground v.1.15,2013-03-04 07:20:00,
2013-03-04 02:25:00,26.4,12.4,30.01,NW,323,0.0,0.0,55,0.00,,,0.00,Wunderground v.1.15,2013-03-04 07:25:00,
2013-03-04 02:30:00,26.4,12.4,30.02,NW,323,0.0,0.0,55,0.00,,,0.00,Wunderground v.1.15,2013-03-04 07:30:00,
2013-03-04 02:40:00,26.1,12.1,30.01,NW,323,0.0,0.0,55,0.00,,,0.00,Wunderground v.1.15,2013-03-04 07:40:00,
2013-03-04 02:45:00,26.0,13.6,30.02,NW,323,0.0,0.0,59,0.00,,,0.00,Wunderground v.1.15,2013-03-04 07:45:00,
2013-03-04 02:50:00,25.8,13.8,30.02,NW,323,0.0,0.0,60,0.00,,,0.00,Wunderground v.1.15,2013-03-04 07:50:00,
2013-03-04 02:55:00,25.5,13.9,30.02,NW,323,0.0,0.0,61,0.00,,,0.00,Wunderground v.1.15,2013-03-04 07:55:00,
2013-03-04 03:00:00,25.4,13.4,30.02,NW,323,0.0,0.0,60,0.00,,,0.00,Wunderground v.1.15,2013-03-04 08:00:00,
2013-03-04 03:05:00,25.1,13.9,30.02,NW,323,0.0,0.0,62,0.00,,,0.00,Wunderground v.1.15,2013-03-04 08:05:00,
2013-03-04 03:10:00,24.9,15.1,30.02,NW,323,0.0,0.0,66,0.00,,,0.00,Wunderground v.1.15,2013-03-04 08:10:00,
2013-03-04 03:15:00,24.8,12.5,30.02,NW,323,0.0,0.0,59,0.00,,,0.00,Wunderground v.1.15,2013-03-04 08:15:00,
2013-03-04 03:20:00,24.6,14.1,30.02,NW,323,0.0,0.0,64,0.00,,,0.00,Wunderground v.1.15,2013-03-04 08:20:00,
2013-03-04 03:25:00,24.5,14.1,30.02,NW,323,0.0,0.0,64,0.00,,,0.00,Wunderground v.1.15,2013-03-04 08:25:00,
2013-03-04 03:30:00,24.2,14.1,30.02,NW,323,0.0,0.0,65,0.00,,,0.00,Wunderground v.1.15,2013-03-04 08:30:00,
2013-03-04 03:40:00,23.8,14.8,30.02,NW,323,0.0,0.0,68,0.00,,,0.00,Wunderground v.1.15,2013-03-04 08:40:00,
2013-03-04 03:45:00,23.6,14.9,30.02,NW,323,0.0,0.0,69,0.00,,,0.00,Wunderground v.1.15,2013-03-04 08:45:00,
2013-03-04 03:50:00,23.5,14.5,30.02,NW,323,0.0,0.0,68,0.00,,,0.00,Wunderground v.1.15,2013-03-04 08:50:00,
2013-03-04 04:00:00,23.0,13.7,30.03,NW,323,0.0,0.0,67,0.00,,,0.00,Wunderground v.1.15,2013-03-04 09:00:00,
2013-03-04 04:05:00,22.9,14.2,30.03,NW,323,0.0,0.0,69,0.00,,,0.00,Wunderground v.1.15,2013-03-04 09:05:00,
2013-03-04 04:10:00,22.7,13.4,30.03,NW,323,0.0,0.0,67,0.00,,,0.00,Wunderground v.1.15,2013-03-04 09:10:00,
2013-03-04 04:15:00,22.4,13.1,30.03,NW,323,0.0,0.0,67,0.00,,,0.00,Wunderground v.1.15,2013-03-04 09:15:00,
2013-03-04 04:20:00,22.3,14.0,30.03,NW,323,0.0,0.0,70,0.00,,,0.00,Wunderground v.1.15,2013-03-04 09:20:00,
2013-03-04 04:25:00,22.0,14.0,30.04,NW,323,0.0,0.0,71,0.00,,,0.00,Wunderground v.1.15,2013-03-04 09:25:00,
2013-03-04 04:30:00,21.8,13.5,30.04,NW,323,0.0,0.0,70,0.00,,,0.00,Wunderground v.1.15,2013-03-04 09:30:00,
2013-03-04 04:35:00,21.8,13.8,30.04,NW,323,0.0,0.0,71,0.00,,,0.00,Wunderground v.1.15,2013-03-04 09:35:00,
2013-03-04 04:40:00,21.7,13.7,30.04,NW,323,0.0,0.0,71,0.00,,,0.00,Wunderground v.1.15,2013-03-04 09:40:00,
2013-03-04 04:45:00,21.5,13.9,30.04,NW,323,0.0,0.0,72,0.00,,,0.00,Wunderground v.1.15,2013-03-04 09:45:00,
2013-03-04 04:50:00,21.4,13.8,30.04,NW,323,0.0,0.0,72,0.00,,,0.00,Wunderground v.1.15,2013-03-04 09:50:00,
2013-03-04 04:55:00,21.0,13.4,30.05,NW,323,0.0,0.0,72,0.00,,,0.00,Wunderground v.1.15,2013-03-04 09:55:00,
2013-03-04 05:00:00,20.9,13.3,30.05,NW,323,0.0,0.0,72,0.00,,,0.00,Wunderground v.1.15,2013-03-04 10:00:00,
2013-03-04 05:05:00,20.9,13.6,30.05,NW,323,0.0,0.0,73,0.00,,,0.00,Wunderground v.1.15,2013-03-04 10:05:00,
2013-03-04 05:10:00,20.7,13.4,30.05,NW,323,0.0,0.0,73,0.00,,,0.00,Wunderground v.1.15,2013-03-04 10:10:00,
2013-03-04 05:15:00,20.7,13.4,30.06,NW,323,0.0,0.0,73,0.00,,,0.00,Wunderground v.1.15,2013-03-04 10:15:00,
2013-03-04 05:20:00,20.9,14.8,30.06,NW,323,0.0,0.0,77,0.00,,,0.00,Wunderground v.1.15,2013-03-04 10:20:00,
2013-03-04 05:25:00,21.2,13.6,30.07,NW,323,0.0,0.0,72,0.00,,,0.00,Wunderground v.1.15,2013-03-04 10:25:00,
2013-03-04 05:30:00,21.7,13.4,30.07,NW,323,0.0,0.0,70,0.00,,,0.00,Wunderground v.1.15,2013-03-04 10:30:00,
2013-03-04 05:35:00,22.3,13.3,30.07,NW,322,0.0,0.0,68,0.00,,,0.00,Wunderground v.1.15,2013-03-04 10:35:00,
2013-03-04 05:40:00,22.9,13.6,30.07,NW,320,0.0,0.0,67,0.00,,,0.00,Wunderground v.1.15,2013-03-04 10:40:00,
2013-03-04 05:45:00,23.3,13.3,30.08,NW,320,0.0,0.0,65,0.00,,,0.00,Wunderground v.1.15,2013-03-04 10:45:00,
2013-03-04 05:50:00,23.6,13.2,30.08,NW,320,0.0,0.0,64,0.00,,,0.00,Wunderground v.1.15,2013-03-04 10:50:00,
2013-03-04 05:55:00,23.9,13.1,30.08,NW,320,0.0,0.0,63,0.00,,,0.00,Wunderground v.1.15,2013-03-04 10:55:00,
2013-03-04 06:00:00,24.1,13.3,30.08,NW,320,0.0,0.0,63,0.00,,,0.00,Wunderground v.1.15,2013-03-04 11:00:00,
2013-03-04 06:05:00,24.1,13.7,30.08,NW,320,0.0,0.0,64,0.00,,,0.00,Wunderground v.1.15,2013-03-04 11:05:00,
2013-03-04 06:10:00,24.1,13.7,30.08,NW,320,0.0,0.0,64,0.00,,,0.00,Wunderground v.1.15,2013-03-04 11:10:00,
2013-03-04 06:15:00,24.1,13.7,30.08,NW,320,0.0,0.0,64,0.00,,,0.00,Wunderground v.1.15,2013-03-04 11:15:00,
2013-03-04 06:20:00,24.1,13.3,30.08,NW,320,0.0,0.0,63,0.00,,,0.00,Wunderground v.1.15,2013-03-04 11:20:00,
2013-03-04 06:25:00,24.1,13.3,30.08,NW,320,0.0,0.0,63,0.00,,,0.00,Wunderground v.1.15,2013-03-04 11:25:00,
2013-03-04 06:30:00,24.1,12.9,30.08,NW,320,0.0,0.0,62,0.00,,,0.00,Wunderground v.1.15,2013-03-04 11:30:00,
2013-03-04 06:35:00,24.1,13.7,30.08,NW,320,0.0,0.0,64,0.00,,,0.00,Wunderground v.1.15,2013-03-04 11:35:00,
2013-03-04 06:40:00,23.9,12.8,30.08,NW,320,0.0,0.0,62,0.00,,,0.00,Wunderground v.1.15,2013-03-04 11:40:00,
2013-03-04 06:45:00,23.8,13.4,30.08,NW,320,0.0,0.0,64,0.00,,,0.00,Wunderground v.1.15,2013-03-04 11:45:00,
2013-03-04 06:50:00,23.6,13.5,30.09,NW,320,0.0,0.0,65,0.00,,,0.00,Wunderground v.1.15,2013-03-04 11:50:00,
2013-03-04 06:55:00,23.3,14.0,30.08,NW,320,0.0,0.0,67,0.00,,,0.00,Wunderground v.1.15,2013-03-04 11:55:00,
2013-03-04 07:00:00,23.2,14.9,30.09,NW,320,0.0,0.0,70,0.00,,,0.00,Wunderground v.1.15,2013-03-04 12:00:00,
2013-03-04 07:05:00,23.0,14.0,30.09,NW,320,0.0,0.0,68,0.00,,,0.00,Wunderground v.1.15,2013-03-04 12:05:00,
2013-03-04 07:10:00,23.0,14.3,30.09,NW,320,0.0,0.0,69,0.00,,,0.00,Wunderground v.1.15,2013-03-04 12:10:00,
2013-03-04 07:15:00,23.0,14.3,30.10,NW,319,0.0,0.0,69,0.00,,,0.00,Wunderground v.1.15,2013-03-04 12:15:00,
2013-03-04 07:20:00,23.5,12.7,30.10,NW,319,0.0,0.0,63,0.00,,,0.00,Wunderground v.1.15,2013-03-04 12:20:00,
2013-03-04 07:30:00,24.2,13.0,30.10,NW,319,0.0,0.0,62,0.00,,,0.00,Wunderground v.1.15,2013-03-04 12:30:00,
2013-03-04 07:35:00,24.8,12.5,30.11,NW,319,0.0,1.0,59,0.00,,,0.00,Wunderground v.1.15,2013-03-04 12:35:00,
2013-03-04 07:40:00,25.5,12.4,30.11,NW,304,0.0,1.0,57,0.00,,,0.00,Wunderground v.1.15,2013-03-04 12:40:00,
2013-03-04 07:50:00,26.4,12.4,30.12,West,273,0.0,0.0,55,0.00,,,0.00,Wunderground v.1.15,2013-03-04 12:50:00,
2013-03-04 07:55:00,26.9,12.5,30.12,West,273,0.0,0.0,54,0.00,,,0.00,Wunderground v.1.15,2013-03-04 12:55:00,
2013-03-04 08:00:00,27.2,12.3,30.12,WSW,257,0.0,0.0,53,0.00,,,0.00,Wunderground v.1.15,2013-03-04 13:00:00,
2013-03-04 08:05:00,27.6,12.7,30.12,WSW,257,0.0,0.0,53,0.00,,,0.00,Wunderground v.1.15,2013-03-04 13:05:00,
2013-03-04 08:10:00,27.9,12.5,30.13,WSW,256,0.0,1.0,52,0.00,,,0.00,Wunderground v.1.15,2013-03-04 13:10:00,
2013-03-04 08:15:00,28.3,12.5,30.13,West,261,1.0,1.0,51,0.00,,,0.00,Wunderground v.1.15,2013-03-04 13:15:00,
2013-03-04 08:20:00,28.6,12.7,30.13,WSW,246,1.0,1.0,51,0.00,,,0.00,Wunderground v.1.15,2013-03-04 13:20:00,
2013-03-04 08:25:00,29.1,12.8,30.13,WNW,290,1.0,1.0,50,0.00,,,0.00,Wunderground v.1.15,2013-03-04 13:25:00,
2013-03-04 08:30:00,29.4,12.1,30.13,WNW,293,1.0,2.0,48,0.00,,,0.00,Wunderground v.1.15,2013-03-04 13:30:00,
2013-03-04 08:35:00,29.7,12.8,30.13,NW,323,1.0,2.0,49,0.00,,,0.00,Wunderground v.1.15,2013-03-04 13:35:00,
2013-03-04 08:40:00,30.0,11.2,30.12,WNW,300,2.0,6.0,45,0.00,,,0.00,Wunderground v.1.15,2013-03-04 13:40:00,
2013-03-04 08:45:00,30.1,11.3,30.13,West,281,2.0,6.0,45,0.00,,,0.00,Wunderground v.1.15,2013-03-04 13:45:00,
2013-03-04 08:50:00,30.6,12.2,30.13,West,265,1.0,1.0,46,0.00,,,0.00,Wunderground v.1.15,2013-03-04 13:50:00,
2013-03-04 08:55:00,30.9,11.5,30.13,NW,311,1.0,1.0,44,0.00,,,0.00,Wunderground v.1.15,2013-03-04 13:55:00,
2013-03-04 09:00:00,31.2,11.8,30.13,WNW,294,2.0,7.0,44,0.00,,,0.00,Wunderground v.1.15,2013-03-04 14:00:00,
2013-03-04 09:10:00,31.4,10.9,30.13,NNW,334,3.0,7.0,42,0.00,,,0.00,Wunderground v.1.15,2013-03-04 14:10:00,
2013-03-04 09:15:00,31.6,11.6,30.13,WNW,298,3.0,7.0,43,0.00,,,0.00,Wunderground v.1.15,2013-03-04 14:15:00,
2013-03-04 09:20:00,32.0,11.5,30.13,WSW,255,3.0,4.0,42,0.00,,,0.00,Wunderground v.1.15,2013-03-04 14:20:00,
2013-03-04 09:25:00,32.6,11.5,30.13,WNW,302,3.0,4.0,41,0.00,,,0.00,Wunderground v.1.15,2013-03-04 14:25:00,
2013-03-04 09:30:00,32.8,11.6,30.13,NW,313,3.0,3.0,41,0.00,,,0.00,Wunderground v.1.15,2013-03-04 14:30:00,
2013-03-04 09:35:00,32.9,10.6,30.13,NW,316,4.0,4.0,39,0.00,,,0.00,Wunderground v.1.15,2013-03-04 14:35:00,
2013-03-04 09:40:00,33.1,10.8,30.13,NNW,344,4.0,6.0,39,0.00,,,0.00,Wunderground v.1.15,2013-03-04 14:40:00,
2013-03-04 09:45:00,33.4,11.1,30.13,NNW,335,4.0,6.0,39,0.00,,,0.00,Wunderground v.1.15,2013-03-04 14:45:00,
2013-03-04 09:50:00,33.5,10.6,30.13,NNW,334,4.0,4.0,38,0.00,,,0.00,Wunderground v.1.15,2013-03-04 14:50:00,
2013-03-04 09:55:00,34.0,11.0,30.13,West,281,3.0,4.0,38,0.00,,,0.00,Wunderground v.1.15,2013-03-04 14:55:00,
2013-03-04 10:00:00,34.5,10.9,30.12,West,276,2.0,3.0,37,0.00,,,0.00,Wunderground v.1.15,2013-03-04 15:00:00,
2013-03-04 10:05:00,34.8,11.7,30.13,NW,319,2.0,5.0,38,0.00,,,0.00,Wunderground v.1.15,2013-03-04 15:05:00,
2013-03-04 10:10:00,35.3,11.0,30.13,NW,315,2.0,2.0,36,0.00,,,0.00,Wunderground v.1.15,2013-03-04 15:10:00,
2013-03-04 10:15:00,35.3,10.3,30.13,NW,314,3.0,3.0,35,0.00,,,0.00,Wunderground v.1.15,2013-03-04 15:15:00,
2013-03-04 10:20:00,35.7,11.9,30.13,WNW,293,2.0,2.0,37,0.00,,,0.00,Wunderground v.1.15,2013-03-04 15:20:00,
2013-03-04 10:25:00,36.1,10.4,30.13,WNW,298,1.0,2.0,34,0.00,,,0.00,Wunderground v.1.15,2013-03-04 15:25:00,
2013-03-04 10:30:00,36.0,10.3,30.13,WNW,286,2.0,2.0,34,0.00,,,0.00,Wunderground v.1.15,2013-03-04 15:30:00,
2013-03-04 10:35:00,36.4,12.6,30.13,West,267,1.0,2.0,37,0.00,,,0.00,Wunderground v.1.15,2013-03-04 15:35:00,
2013-03-04 10:40:00,37.1,11.3,30.13,WSW,252,1.0,1.0,34,0.00,,,0.00,Wunderground v.1.15,2013-03-04 15:40:00,
2013-03-04 10:45:00,37.3,12.1,30.13,NNW,340,2.0,7.0,35,0.00,,,0.00,Wunderground v.1.15,2013-03-04 15:45:00,
2013-03-04 10:50:00,37.3,10.8,30.12,NW,322,2.0,2.0,33,0.00,,,0.00,Wunderground v.1.15,2013-03-04 15:50:00,
2013-03-04 11:00:00,37.8,10.5,30.12,West,281,3.0,3.0,32,0.00,,,0.00,Wunderground v.1.15,2013-03-04 16:00:00,
2013-03-04 11:05:00,38.1,10.1,30.12,NNW,346,3.0,5.0,31,0.00,,,0.00,Wunderground v.1.15,2013-03-04 16:05:00,
2013-03-04 11:10:00,38.1,10.1,30.13,WNW,303,3.0,4.0,31,0.00,,,0.00,Wunderground v.1.15,2013-03-04 16:10:00,
2013-03-04 11:15:00,38.1,8.6,30.12,NW,321,3.0,4.0,29,0.00,,,0.00,Wunderground v.1.15,2013-03-04 16:15:00,
2013-03-04 11:20:00,38.4,11.1,30.12,NE,38,2.0,2.0,32,0.00,,,0.00,Wunderground v.1.15,2013-03-04 16:20:00,
2013-03-04 11:25:00,39.1,11.7,30.11,NW,322,1.0,2.0,32,0.00,,,0.00,Wunderground v.1.15,2013-03-04 16:25:00,
2013-03-04 11:30:00,39.4,9.7,30.11,NNW,329,2.0,2.0,29,0.00,,,0.00,Wunderground v.1.15,2013-03-04 16:30:00,
2013-03-04 11:35:00,39.7,10.0,30.11,West,277,2.0,2.0,29,0.00,,,0.00,Wunderground v.1.15,2013-03-04 16:35:00,
2013-03-04 11:40:00,40.0,11.0,30.11,SW,232,2.0,2.0,30,0.00,,,0.00,Wunderground v.1.15,2013-03-04 16:40:00,
2013-03-04 11:50:00,41.4,13.0,30.11,WSW,243,2.0,2.0,31,0.00,,,0.00,Wunderground v.1.15,2013-03-04 16:50:00,
2013-03-04 11:55:00,41.8,12.6,30.10,NW,310,2.0,2.0,30,0.00,,,0.00,Wunderground v.1.15,2013-03-04 16:55:00,
2013-03-04 12:00:00,42.0,10.4,30.10,NNW,340,1.0,2.0,27,0.00,,,0.00,Wunderground v.1.15,2013-03-04 17:00:00,
2013-03-04 12:05:00,42.0,10.4,30.11,WSW,258,2.0,2.0,27,0.00,,,0.00,Wunderground v.1.15,2013-03-04 17:05:00,
2013-03-04 12:10:00,42.0,11.2,30.10,West,263,1.0,1.0,28,0.00,,,0.00,Wunderground v.1.15,2013-03-04 17:10:00,
2013-03-04 12:20:00,42.1,10.5,30.10,WNW,298,2.0,2.0,27,0.00,,,0.00,Wunderground v.1.15,2013-03-04 17:20:00,
2013-03-04 12:30:00,42.8,9.3,30.10,North,350,3.0,5.0,25,0.00,,,0.00,Wunderground v.1.15,2013-03-04 17:30:00,
2013-03-04 12:40:00,42.8,10.2,30.10,WNW,290,3.0,3.0,26,0.00,,,0.00,Wunderground v.1.15,2013-03-04 17:40:00,
2013-03-04 12:45:00,43.1,10.5,30.10,WNW,286,3.0,4.0,26,0.00,,,0.00,Wunderground v.1.15,2013-03-04 17:45:00,
2013-03-04 12:50:00,43.6,12.6,30.10,SW,232,2.0,2.0,28,0.00,,,0.00,Wunderground v.1.15,2013-03-04 17:50:00,
2013-03-04 12:55:00,43.7,10.1,30.10,West,263,3.0,6.0,25,0.00,,,0.00,Wunderground v.1.15,2013-03-04 17:55:00,
2013-03-04 13:05:00,43.7,12.7,30.09,WSW,250,1.0,6.0,28,0.00,,,0.00,Wunderground v.1.15,2013-03-04 18:05:00,
2013-03-04 13:15:00,44.3,9.7,30.09,NW,311,4.0,5.0,24,0.00,,,0.00,Wunderground v.1.15,2013-03-04 18:15:00,
2013-03-04 13:20:00,44.5,12.5,30.08,NNW,339,4.0,5.0,27,0.00,,,0.00,Wunderground v.1.15,2013-03-04 18:20:00,
2013-03-04 13:30:00,45.5,11.7,30.08,SW,231,3.0,3.0,25,0.00,,,0.00,Wunderground v.1.15,2013-03-04 18:30:00,
2013-03-04 13:35:00,45.8,11.0,30.08,West,273,3.0,5.0,24,0.00,,,0.00,Wunderground v.1.15,2013-03-04 18:35:00,
2013-03-04 13:40:00,46.1,10.3,30.07,NNW,338,4.0,4.0,23,0.00,,,0.00,Wunderground v.1.15,2013-03-04 18:40:00,
2013-03-04 13:45:00,46.4,14.2,30.07,West,281,4.0,4.0,27,0.00,,,0.00,Wunderground v.1.15,2013-03-04 18:45:00,
2013-03-04 13:50:00,46.5,10.6,30.07,North,355,3.0,4.0,23,0.00,,,0.00,Wunderground v.1.15,2013-03-04 18:50:00,
2013-03-04 13:55:00,46.7,10.8,30.06,SW,235,2.0,5.0,23,0.00,,,0.00,Wunderground v.1.15,2013-03-04 18:55:00,
2013-03-04 14:00:00,46.8,8.8,30.06,NNW,332,3.0,4.0,21,0.00,,,0.00,Wunderground v.1.15,2013-03-04 19:00:00,
2013-03-04 14:10:00,47.0,10.1,30.06,SW,230,2.0,2.0,22,0.00,,,0.00,Wunderground v.1.15,2013-03-04 19:10:00,
2013-03-04 14:15:00,47.3,12.3,30.06,SW,233,3.0,3.0,24,0.00,,,0.00,Wunderground v.1.15,2013-03-04 19:15:00,
2013-03-04 14:20:00,47.4,9.4,30.05,NNW,332,4.0,4.0,21,0.00,,,0.00,Wunderground v.1.15,2013-03-04 19:20:00,
2013-03-04 14:25:00,47.3,9.3,30.05,NW,304,3.0,4.0,21,0.00,,,0.00,Wunderground v.1.15,2013-03-04 19:25:00,
2013-03-04 14:30:00,47.6,9.5,30.05,West,263,3.0,3.0,21,0.00,,,0.00,Wunderground v.1.15,2013-03-04 19:30:00,
2013-03-04 14:35:00,47.9,9.8,30.05,NNW,338,2.0,3.0,21,0.00,,,0.00,Wunderground v.1.15,2013-03-04 19:35:00,
2013-03-04 14:40:00,47.9,9.8,30.04,NNW,327,2.0,2.0,21,0.00,,,0.00,Wunderground v.1.15,2013-03-04 19:40:00,
2013-03-04 14:45:00,48.3,11.2,30.04,SW,217,2.0,2.0,22,0.00,,,0.00,Wunderground v.1.15,2013-03-04 19:45:00,
2013-03-04 14:50:00,48.7,9.4,30.04,West,259,2.0,3.0,20,0.00,,,0.00,Wunderground v.1.15,2013-03-04 19:50:00,
2013-03-04 14:55:00,48.7,9.4,30.04,NW,319,2.0,3.0,20,0.00,,,0.00,Wunderground v.1.15,2013-03-04 19:55:00,
2013-03-04 15:00:00,48.9,9.5,30.04,NNW,336,2.0,2.0,20,0.00,,,0.00,Wunderground v.1.15,2013-03-04 20:00:00,
2013-03-04 15:05:00,49.3,13.0,30.04,WSW,252,1.0,5.0,23,0.00,,,0.00,Wunderground v.1.15,2013-03-04 20:05:00,
2013-03-04 15:10:00,49.8,10.3,30.04,NNW,333,2.0,4.0,20,0.00,,,0.00,Wunderground v.1.15,2013-03-04 20:10:00,
2013-03-04 15:15:00,49.9,10.4,30.04,NNW,331,2.0,7.0,20,0.00,,,0.00,Wunderground v.1.15,2013-03-04 20:15:00,
2013-03-04 15:20:00,49.8,9.1,30.04,NNW,331,2.0,2.0,19,0.00,,,0.00,Wunderground v.1.15,2013-03-04 20:20:00,
2013-03-04 15:25:00,49.8,9.1,30.04,NW,320,2.0,2.0,19,0.00,,,0.00,Wunderground v.1.15,2013-03-04 20:25:00,
2013-03-04 15:30:00,49.9,9.2,30.04,WSW,241,2.0,2.0,19,0.00,,,0.00,Wunderground v.1.15,2013-03-04 20:30:00,
2013-03-04 15:35:00,50.2,10.6,30.04,South,191,2.0,2.0,20,0.00,,,0.00,Wunderground v.1.15,2013-03-04 20:35:00,
2013-03-04 15:40:00,50.4,9.6,30.04,WSW,254,1.0,1.0,19,0.00,,,0.00,Wunderground v.1.15,2013-03-04 20:40:00,
2013-03-04 15:45:00,50.7,9.9,30.04,SSW,208,2.0,2.0,19,0.00,,,0.00,Wunderground v.1.15,2013-03-04 20:45:00,
2013-03-04 15:50:00,50.7,8.7,30.04,NW,314,2.0,2.0,18,0.00,,,0.00,Wunderground v.1.15,2013-03-04 20:50:00,
2013-03-04 15:55:00,50.8,11.1,30.04,NNW,338,2.0,2.0,20,0.00,,,0.00,Wunderground v.1.15,2013-03-04 20:55:00,
2013-03-04 16:00:00,51.1,11.4,30.04,SW,223,2.0,5.0,20,0.00,,,0.00,Wunderground v.1.15,2013-03-04 21:00:00,
2013-03-04 16:10:00,51.0,11.3,30.03,WNW,298,3.0,6.0,20,0.00,,,0.00,Wunderground v.1.15,2013-03-04 21:10:00,
2013-03-04 16:15:00,50.8,12.2,30.04,SW,223,2.0,6.0,21,0.00,,,0.00,Wunderground v.1.15,2013-03-04 21:15:00,
2013-03-04 16:20:00,51.3,13.7,30.04,SW,218,2.0,2.0,22,0.00,,,0.00,Wunderground v.1.15,2013-03-04 21:20:00,
2013-03-04 16:25:00,51.7,10.7,30.04,WSW,246,2.0,2.0,19,0.00,,,0.00,Wunderground v.1.15,2013-03-04 21:25:00,
2013-03-04 16:30:00,52.1,11.0,30.04,WNW,302,1.0,2.0,19,0.00,,,0.00,Wunderground v.1.15,2013-03-04 21:30:00,
2013-03-04 16:40:00,52.1,9.8,30.04,West,281,2.0,2.0,18,0.00,,,0.00,Wunderground v.1.15,2013-03-04 21:40:00,
2013-03-04 16:45:00,51.8,10.8,30.04,West,261,2.0,2.0,19,0.00,,,0.00,Wunderground v.1.15,2013-03-04 21:45:00,
2013-03-04 16:50:00,51.8,10.8,30.04,WSW,249,1.0,2.0,19,0.00,,,0.00,Wunderground v.1.15,2013-03-04 21:50:00,
2013-03-04 17:00:00,51.6,12.9,30.04,SW,215,2.0,5.0,21,0.00,,,0.00,Wunderground v.1.15,2013-03-04 22:00:00,
2013-03-04 17:05:00,51.0,11.3,30.04,SSW,203,3.0,5.0,20,0.00,,,0.00,Wunderground v.1.15,2013-03-04 22:05:00,
2013-03-04 17:10:00,50.4,10.8,30.04,SW,227,3.0,3.0,20,0.00,,,0.00,Wunderground v.1.15,2013-03-04 22:10:00,
2013-03-04 17:15:00,50.1,10.5,30.04,WSW,256,3.0,3.0,20,0.00,,,0.00,Wunderground v.1.15,2013-03-04 22:15:00,
2013-03-04 17:20:00,49.9,10.4,30.05,WSW,244,2.0,2.0,20,0.00,,,0.00,Wunderground v.1.15,2013-03-04 22:20:00,
2013-03-04 17:25:00,49.6,11.2,30.05,WSW,257,2.0,2.0,21,0.00,,,0.00,Wunderground v.1.15,2013-03-04 22:25:00,
2013-03-04 17:30:00,49.5,10.0,30.04,West,263,1.0,4.0,20,0.00,,,0.00,Wunderground v.1.15,2013-03-04 22:30:00,
2013-03-04 17:35:00,49.3,8.7,30.05,West,264,2.0,4.0,19,0.00,,,0.00,Wunderground v.1.15,2013-03-04 22:35:00,
2013-03-04 17:40:00,49.0,9.6,30.05,WSW,257,1.0,1.0,20,0.00,,,0.00,Wunderground v.1.15,2013-03-04 22:40:00,
2013-03-04 17:45:00,48.9,9.5,30.05,WSW,257,1.0,1.0,20,0.00,,,0.00,Wunderground v.1.15,2013-03-04 22:45:00,
2013-03-04 17:50:00,48.7,10.4,30.05,WSW,257,0.0,0.0,21,0.00,,,0.00,Wunderground v.1.15,2013-03-04 22:50:00,
2013-03-04 17:55:00,48.4,10.2,30.05,WSW,257,0.0,0.0,21,0.00,,,0.00,Wunderground v.1.15,2013-03-04 22:55:00,
2013-03-04 18:00:00,48.3,12.2,30.05,WSW,257,0.0,0.0,23,0.00,,,0.00,Wunderground v.1.15,2013-03-04 23:00:00,
2013-03-04 18:10:00,47.7,10.6,30.05,WSW,257,0.0,0.0,22,0.00,,,0.00,Wunderground v.1.15,2013-03-04 23:10:00,
2013-03-04 18:15:00,47.4,11.4,30.05,WSW,257,0.0,0.0,23,0.00,,,0.00,Wunderground v.1.15,2013-03-04 23:15:00,
2013-03-04 18:20:00,47.1,11.1,30.05,WSW,257,0.0,0.0,23,0.00,,,0.00,Wunderground v.1.15,2013-03-04 23:20:00,
2013-03-04 18:25:00,46.7,16.1,30.05,WSW,257,0.0,0.0,29,0.00,,,0.00,Wunderground v.1.15,2013-03-04 23:25:00,
2013-03-04 18:30:00,45.8,14.5,30.06,WSW,257,0.0,0.0,28,0.00,,,0.00,Wunderground v.1.15,2013-03-04 23:30:00,
2013-03-04 18:35:00,45.2,14.8,30.06,WSW,257,0.0,0.0,29,0.00,,,0.00,Wunderground v.1.15,2013-03-04 23:35:00,
2013-03-04 18:40:00,44.6,15.8,30.06,WSW,257,0.0,0.0,31,0.00,,,0.00,Wunderground v.1.15,2013-03-04 23:40:00,
2013-03-04 18:45:00,43.9,13.6,30.06,WSW,257,0.0,0.0,29,0.00,,,0.00,Wunderground v.1.15,2013-03-04 23:45:00,
2013-03-04 18:50:00,43.1,15.2,30.06,WSW,257,0.0,0.0,32,0.00,,,0.00,Wunderground v.1.15,2013-03-04 23:50:00,
2013-03-04 18:55:00,42.6,18.1,30.06,WSW,257,0.0,0.0,37,0.00,,,0.00,Wunderground v.1.15,2013-03-04 23:55:00,
2013-03-04 19:00:00,41.7,17.3,30.06,WSW,257,0.0,0.0,37,0.00,,,0.00,Wunderground v.1.15,2013-03-05 00:00:00,
2013-03-04 19:05:00,40.8,14.6,30.06,WSW,257,0.0,0.0,34,0.00,,,0.00,Wunderground v.1.15,2013-03-05 00:05:00,
2013-03-04 19:10:00,40.6,17.5,30.06,WSW,257,0.0,0.0,39,0.00,,,0.00,Wunderground v.1.15,2013-03-05 00:10:00,
2013-03-04 19:15:00,40.1,16.5,30.06,WSW,257,0.0,0.0,38,0.00,,,0.00,Wunderground v.1.15,2013-03-05 00:15:00,
2013-03-04 19:20:00,39.7,16.1,30.06,WSW,257,0.0,0.0,38,0.00,,,0.00,Wunderground v.1.15,2013-03-05 00:20:00,
2013-03-04 19:25:00,39.3,19.2,30.07,WSW,257,0.0,0.0,44,0.00,,,0.00,Wunderground v.1.15,2013-03-05 00:25:00,
2013-03-04 19:30:00,39.1,19.5,30.07,WSW,257,0.0,0.0,45,0.00,,,0.00,Wunderground v.1.15,2013-03-05 00:30:00,
2013-03-04 19:35:00,38.8,20.8,30.07,WSW,257,0.0,0.0,48,0.00,,,0.00,Wunderground v.1.15,2013-03-05 00:35:00,
2013-03-04 19:40:00,38.4,20.4,30.07,WSW,257,0.0,0.0,48,0.00,,,0.00,Wunderground v.1.15,2013-03-05 00:40:00,
2013-03-04 19:45:00,38.1,19.6,30.07,WSW,257,0.0,0.0,47,0.00,,,0.00,Wunderground v.1.15,2013-03-05 00:45:00,
2013-03-04 19:50:00,37.7,19.8,30.07,WSW,257,0.0,0.0,48,0.00,,,0.00,Wunderground v.1.15,2013-03-05 00:50:00,
2013-03-04 19:55:00,37.3,21.7,30.07,WSW,257,0.0,0.0,53,0.00,,,0.00,Wunderground v.1.15,2013-03-05 00:55:00,
2013-03-04 20:00:00,36.8,17.9,30.07,WSW,257,0.0,0.0,46,0.00,,,0.00,Wunderground v.1.15,2013-03-05 01:00:00,
2013-03-04 20:05:00,36.5,19.1,30.07,WSW,257,0.0,0.0,49,0.00,,,0.00,Wunderground v.1.15,2013-03-05 01:05:00,
2013-03-04 20:10:00,36.3,19.9,30.07,WSW,257,0.0,0.0,51,0.00,,,0.00,Wunderground v.1.15,2013-03-05 01:10:00,
2013-03-04 20:15:00,36.0,19.1,30.07,WSW,257,0.0,0.0,50,0.00,,,0.00,Wunderground v.1.15,2013-03-05 01:15:00,
2013-03-04 20:20:00,35.7,17.9,30.07,WSW,257,0.0,0.0,48,0.00,,,0.00,Wunderground v.1.15,2013-03-05 01:20:00,
2013-03-04 20:25:00,35.4,19.0,30.07,WSW,257,0.0,0.0,51,0.00,,,0.00,Wunderground v.1.15,2013-03-05 01:25:00,
2013-03-04 20:30:00,35.1,19.2,30.07,WSW,257,0.0,0.0,52,0.00,,,0.00,Wunderground v.1.15,2013-03-05 01:30:00,
2013-03-04 20:35:00,35.0,19.1,30.07,WSW,257,0.0,0.0,52,0.00,,,0.00,Wunderground v.1.15,2013-03-05 01:35:00,
2013-03-04 20:40:00,34.7,17.5,30.07,WSW,257,0.0,0.0,49,0.00,,,0.00,Wunderground v.1.15,2013-03-05 01:40:00,
2013-03-04 20:45:00,34.5,16.8,30.07,WSW,257,0.0,0.0,48,0.00,,,0.00,Wunderground v.1.15,2013-03-05 01:45:00,
2013-03-04 20:50:00,34.1,15.9,30.07,WSW,257,0.0,0.0,47,0.00,,,0.00,Wunderground v.1.15,2013-03-05 01:50:00,
2013-03-04 21:00:00,33.8,21.0,30.07,WSW,257,0.0,0.0,59,0.00,,,0.00,Wunderground v.1.15,2013-03-05 02:00:00,
2013-03-04 21:05:00,33.8,21.8,30.07,WSW,257,0.0,0.0,61,0.00,,,0.00,Wunderground v.1.15,2013-03-05 02:05:00,
2013-03-04 21:10:00,33.8,21.0,30.07,WSW,257,0.0,0.0,59,0.00,,,0.00,Wunderground v.1.15,2013-03-05 02:10:00,
2013-03-04 21:15:00,33.7,20.9,30.07,WSW,257,0.0,0.0,59,0.00,,,0.00,Wunderground v.1.15,2013-03-05 02:15:00,
2013-03-04 21:20:00,33.5,21.9,30.08,WSW,257,0.0,0.0,62,0.00,,,0.00,Wunderground v.1.15,2013-03-05 02:20:00,
2013-03-04 21:25:00,33.4,20.6,30.08,WSW,257,0.0,0.0,59,0.00,,,0.00,Wunderground v.1.15,2013-03-05 02:25:00,
2013-03-04 21:30:00,33.2,18.3,30.08,WSW,257,0.0,0.0,54,0.00,,,0.00,Wunderground v.1.15,2013-03-05 02:30:00,
2013-03-04 21:35:00,32.9,18.1,30.08,WSW,257,0.0,0.0,54,0.00,,,0.00,Wunderground v.1.15,2013-03-05 02:35:00,
2013-03-04 21:40:00,32.8,18.0,30.07,WSW,257,0.0,0.0,54,0.00,,,0.00,Wunderground v.1.15,2013-03-05 02:40:00,
2013-03-04 21:45:00,32.6,17.8,30.08,WSW,257,0.0,0.0,54,0.00,,,0.00,Wunderground v.1.15,2013-03-05 02:45:00,
2013-03-04 21:50:00,32.6,20.6,30.08,WSW,257,0.0,0.0,61,0.00,,,0.00,Wunderground v.1.15,2013-03-05 02:50:00,
2013-03-04 22:00:00,32.8,22.0,30.08,WSW,257,0.0,0.0,64,0.00,,,0.00,Wunderground v.1.15,2013-03-05 03:00:00,
2013-03-04 22:05:00,32.9,23.5,30.08,WSW,257,0.0,0.0,68,0.00,,,0.00,Wunderground v.1.15,2013-03-05 03:05:00,
2013-03-04 22:10:00,33.2,24.1,30.08,WSW,257,0.0,0.0,69,0.00,,,0.00,Wunderground v.1.15,2013-03-05 03:10:00,
2013-03-04 22:20:00,33.4,22.9,30.08,WSW,257,0.0,0.0,65,0.00,,,0.00,Wunderground v.1.15,2013-03-05 03:20:00,
2013-03-04 22:25:00,33.4,22.9,30.08,WSW,257,0.0,0.0,65,0.00,,,0.00,Wunderground v.1.15,2013-03-05 03:25:00,
2013-03-04 22:30:00,33.5,23.7,30.08,WSW,257,0.0,0.0,67,0.00,,,0.00,Wunderground v.1.15,2013-03-05 03:30:00,
2013-03-04 22:35:00,33.7,24.3,30.08,WSW,257,0.0,0.0,68,0.00,,,0.00,Wunderground v.1.15,2013-03-05 03:35:00,
2013-03-04 22:40:00,33.8,24.4,30.08,WSW,257,0.0,0.0,68,0.00,,,0.00,Wunderground v.1.15,2013-03-05 03:40:00,
2013-03-04 22:45:00,33.8,23.6,30.08,WSW,257,0.0,0.0,66,0.00,,,0.00,Wunderground v.1.15,2013-03-05 03:45:00,
2013-03-04 22:50:00,33.8,24.0,30.07,WSW,257,0.0,0.0,67,0.00,,,0.00,Wunderground v.1.15,2013-03-05 03:50:00,
2013-03-04 22:55:00,33.8,22.9,30.07,WSW,257,0.0,0.0,64,0.00,,,0.00,Wunderground v.1.15,2013-03-05 03:55:00,
2013-03-04 23:00:00,33.8,22.5,30.07,WSW,257,0.0,0.0,63,0.00,,,0.00,Wunderground v.1.15,2013-03-05 04:00:00,
2013-03-04 23:10:00,34.0,22.0,30.08,WSW,257,0.0,0.0,61,0.00,,,0.00,Wunderground v.1.15,2013-03-05 04:10:00,
2013-03-04 23:20:00,34.1,22.8,30.07,WSW,257,0.0,0.0,63,0.00,,,0.00,Wunderground v.1.15,2013-03-05 04:20:00,
2013-03-04 23:25:00,34.3,23.0,30.07,WSW,257,0.0,0.0,63,0.00,,,0.00,Wunderground v.1.15,2013-03-05 04:25:00,
2013-03-04 23:30:00,34.4,22.7,30.07,WSW,257,0.0,0.0,62,0.00,,,0.00,Wunderground v.1.15,2013-03-05 04:30:00,
2013-03-04 23:35:00,34.5,22.0,30.07,WSW,257,0.0,0.0,60,0.00,,,0.00,Wunderground v.1.15,2013-03-05 04:35:00,
2013-03-04 23:40:00,34.5,21.2,30.07,WSW,257,0.0,0.0,58,0.00,,,0.00,Wunderground v.1.15,2013-03-05 04:40:00,
2013-03-04 23:50:00,35.0,21.7,30.07,WSW,257,0.0,0.0,58,0.00,,,0.00,Wunderground v.1.15,2013-03-05 04:50:00,
2013-03-04 23:55:00,35.1,21.8,30.06,WSW,257,0.0,0.0,58,0.00,,,0.00,Wunderground v.1.15,2013-03-05 04:55:00,